AFL240 USSS-UWGG

Flight info

Callsign AFL240
Flight time N/A
Altitude 36000
Route LUNA6J LUNAG M864 AGNOK T796 ORTIM L158 KOKAD N604 PESAB PESA2P
Aircraft A320/M-V/N

Departure

Time N/A
Airport Koltsovo Airport (USSS)

Arrival

Time 2026-04-10 14:18
Airport Nizhny Novgorod / Strigino International Airport (UWGG)
Time Latitude Longitude Altitude Speed Heading
2026-04-10 13:17 56.63554 54.86727 35136 ft 447 kts 245°
2026-04-10 13:17 56.62317 54.81537 35139 ft 448 kts 245°
2026-04-10 13:18 56.59841 54.71237 35128 ft 448 kts 244°
2026-04-10 13:18 56.57335 54.60887 35125 ft 448 kts 244°
2026-04-10 13:19 56.54819 54.50535 35123 ft 449 kts 244°
2026-04-10 13:19 56.52306 54.40256 35118 ft 449 kts 244°
2026-04-10 13:20 56.49772 54.29916 35120 ft 450 kts 244°
2026-04-10 13:20 56.47226 54.19596 35103 ft 449 kts 244°
2026-04-10 13:21 56.44673 54.09282 35110 ft 449 kts 244°
2026-04-10 13:21 56.42103 53.98989 35108 ft 449 kts 244°
2026-04-10 13:22 56.39550 53.88772 35100 ft 450 kts 244°
2026-04-10 13:22 56.36981 53.78463 35101 ft 450 kts 244°
2026-04-10 13:23 56.34408 53.68172 35100 ft 450 kts 244°
2026-04-10 13:23 56.31804 53.57902 35082 ft 450 kts 243°
2026-04-10 13:24 56.29187 53.47744 35096 ft 451 kts 244°
2026-04-10 13:24 56.26537 53.37503 35079 ft 451 kts 243°
2026-04-10 13:25 56.23877 53.27268 35083 ft 452 kts 243°
2026-04-10 13:25 56.21198 53.17036 35080 ft 453 kts 243°
2026-04-10 13:26 56.18509 53.06790 35075 ft 454 kts 243°
2026-04-10 13:26 56.15824 52.96602 35076 ft 455 kts 243°
2026-04-10 13:27 56.13114 52.86348 35073 ft 455 kts 243°
2026-04-10 13:27 56.10395 52.76105 35074 ft 455 kts 243°
2026-04-10 13:28 56.07660 52.65872 35074 ft 456 kts 243°
2026-04-10 13:28 56.04937 52.55691 35063 ft 457 kts 243°
2026-04-10 13:29 56.02204 52.45442 35071 ft 457 kts 244°
2026-04-10 13:29 55.99469 52.35197 35060 ft 457 kts 243°
2026-04-10 13:30 55.96729 52.24980 35065 ft 455 kts 243°
2026-04-10 13:30 55.93995 52.14866 35063 ft 456 kts 243°
2026-04-10 13:31 55.91225 52.04683 35063 ft 457 kts 243°
2026-04-10 13:31 55.88446 51.94497 35064 ft 457 kts 243°
2026-04-10 13:32 55.85661 51.84320 35057 ft 456 kts 243°
2026-04-10 13:32 55.82870 51.74176 35063 ft 456 kts 243°
2026-04-10 13:33 55.80088 51.64104 35064 ft 457 kts 243°
2026-04-10 13:33 55.77281 51.53995 35063 ft 456 kts 243°
2026-04-10 13:34 55.74473 51.43917 35058 ft 455 kts 243°
2026-04-10 13:34 55.71752 51.33772 35075 ft 455 kts 245°
2026-04-10 13:35 55.69357 51.23475 35074 ft 455 kts 247°
2026-04-10 13:35 55.67012 51.13070 35070 ft 454 kts 247°
2026-04-10 13:36 55.64591 51.02747 35075 ft 454 kts 246°
2026-04-10 13:36 55.62116 50.92469 35081 ft 454 kts 246°
2026-04-10 13:37 55.59653 50.82255 35086 ft 455 kts 246°
2026-04-10 13:37 55.57180 50.71965 35085 ft 455 kts 246°
2026-04-10 13:38 55.54691 50.61685 35103 ft 455 kts 246°
2026-04-10 13:38 55.52182 50.51408 35102 ft 456 kts 246°
2026-04-10 13:39 55.49681 50.41183 35101 ft 457 kts 246°
2026-04-10 13:39 55.47154 50.30891 35109 ft 457 kts 245°
2026-04-10 13:40 55.44613 50.20610 35112 ft 458 kts 245°
2026-04-10 13:40 55.42062 50.10327 35120 ft 458 kts 245°
2026-04-10 13:41 55.39762 49.99967 35117 ft 459 kts 255°
2026-04-10 13:41 55.39172 49.88800 35120 ft 461 kts 274°
2026-04-10 13:42 55.39752 49.77555 35125 ft 462 kts 274°
2026-04-10 13:42 55.40300 49.66302 35129 ft 462 kts 274°
2026-04-10 13:43 55.40829 49.55046 35129 ft 462 kts 274°
2026-04-10 13:43 55.41361 49.43874 35134 ft 461 kts 274°
2026-04-10 13:44 55.41882 49.32618 35128 ft 462 kts 274°
2026-04-10 13:44 55.42388 49.21360 35129 ft 461 kts 273°
2026-04-10 13:45 55.42885 49.10187 35144 ft 461 kts 273°
2026-04-10 13:45 55.43372 48.98955 35139 ft 460 kts 273°
2026-04-10 13:46 55.43844 48.87713 35131 ft 461 kts 273°
2026-04-10 13:46 55.44316 48.76454 35138 ft 461 kts 273°
2026-04-10 13:47 55.44777 48.65187 35137 ft 461 kts 272°
2026-04-10 13:47 55.45345 48.53996 35136 ft 463 kts 279°
2026-04-10 13:48 55.47093 48.43066 35138 ft 464 kts 286°
2026-04-10 13:48 55.48990 48.32175 35140 ft 465 kts 286°
2026-04-10 13:49 55.50876 48.21257 35131 ft 465 kts 286°
2026-04-10 13:49 55.52739 48.10406 35137 ft 466 kts 285°
2026-04-10 13:50 55.54601 47.99456 35146 ft 466 kts 285°
2026-04-10 13:50 55.56451 47.88482 35147 ft 467 kts 286°
2026-04-10 13:51 55.58304 47.77477 35152 ft 468 kts 285°
2026-04-10 13:51 55.60134 47.66526 35156 ft 468 kts 285°
2026-04-10 13:52 55.61975 47.55494 35152 ft 468 kts 285°
2026-04-10 13:52 55.63803 47.44461 35156 ft 467 kts 285°
2026-04-10 13:53 55.65607 47.33397 35163 ft 468 kts 285°
2026-04-10 13:53 55.67397 47.22387 35162 ft 468 kts 285°
2026-04-10 13:54 55.69207 47.11277 35154 ft 469 kts 285°
2026-04-10 13:54 55.71012 47.00151 35155 ft 469 kts 285°
2026-04-10 13:55 55.72787 46.89021 35160 ft 470 kts 284°
2026-04-10 13:55 55.74539 46.77947 35160 ft 469 kts 285°
2026-04-10 13:56 55.76312 46.66793 35158 ft 470 kts 285°
2026-04-10 13:56 55.78074 46.55601 35157 ft 471 kts 285°
2026-04-10 13:57 55.79490 46.44270 35154 ft 470 kts 274°
2026-04-10 13:57 55.79891 46.32635 34912 ft 473 kts 273°
2026-04-10 13:58 55.80083 46.26795 34409 ft 474 kts 273°
2026-04-10 13:58 55.80273 46.20968 33296 ft 483 kts 273°
2026-04-10 13:58 55.80462 46.14959 32202 ft 491 kts 273°
2026-04-10 13:58 55.80657 46.08847 31110 ft 498 kts 272°
2026-04-10 13:59 55.80851 46.02652 29900 ft 507 kts 272°
2026-04-10 13:59 55.81041 45.96354 29013 ft 510 kts 272°
2026-04-10 13:59 55.81223 45.90101 28319 ft 505 kts 272°
2026-04-10 13:59 55.81399 45.83870 27514 ft 504 kts 272°
2026-04-10 14:00 55.81570 45.77672 26732 ft 501 kts 272°
2026-04-10 14:00 55.81742 45.71513 25976 ft 497 kts 272°
2026-04-10 14:00 55.81913 45.65406 25234 ft 492 kts 272°
2026-04-10 14:00 55.82080 45.59453 24478 ft 487 kts 273°
2026-04-10 14:01 55.82241 45.53489 23883 ft 480 kts 272°
2026-04-10 14:01 55.82393 45.47570 23191 ft 476 kts 272°
2026-04-10 14:01 55.82539 45.41741 22650 ft 468 kts 272°
2026-04-10 14:01 55.82682 45.35988 22039 ft 463 kts 272°
2026-04-10 14:02 55.82821 45.30304 21453 ft 457 kts 272°
2026-04-10 14:02 55.82953 45.24687 20894 ft 451 kts 271°
2026-04-10 14:02 55.83081 45.19143 20334 ft 446 kts 271°
2026-04-10 14:02 55.83246 45.13678 19754 ft 440 kts 276°
2026-04-10 14:03 55.84063 45.08560 19226 ft 435 kts 296°
2026-04-10 14:03 55.85767 45.04207 18659 ft 427 kts 316°
2026-04-10 14:03 55.88137 45.01152 18087 ft 418 kts 336°
2026-04-10 14:03 55.90874 44.99672 17502 ft 409 kts 355°
2026-04-10 14:04 55.93678 44.99721 16903 ft 401 kts
2026-04-10 14:04 55.96458 44.99661 16284 ft 402 kts 350°
2026-04-10 14:04 55.99025 44.97747 15709 ft 403 kts 326°
2026-04-10 14:05 56.01956 44.89762 14048 ft 390 kts 278°
2026-04-10 14:05 56.02010 44.84994 13254 ft 379 kts 265°
2026-04-10 14:05 56.01812 44.80319 12673 ft 377 kts 264°
2026-04-10 14:05 56.01628 44.75650 12068 ft 376 kts 266°
2026-04-10 14:06 56.01539 44.71000 11462 ft 373 kts 268°
2026-04-10 14:06 56.01555 44.66472 10874 ft 356 kts 271°
2026-04-10 14:06 56.01645 44.62224 10701 ft 329 kts 272°
2026-04-10 14:06 56.01758 44.58290 10522 ft 307 kts 272°
2026-04-10 14:07 56.01871 44.54595 10190 ft 296 kts 272°
2026-04-10 14:07 56.01978 44.50923 10151 ft 296 kts 272°
2026-04-10 14:07 56.02082 44.47249 10152 ft 297 kts 272°
2026-04-10 14:07 56.02178 44.43551 10069 ft 304 kts 271°
2026-04-10 14:08 56.02274 44.39744 9819 ft 303 kts 272°
2026-04-10 14:08 56.02346 44.35998 9461 ft 302 kts 271°
2026-04-10 14:08 56.02418 44.32252 9143 ft 302 kts 272°
2026-04-10 14:08 56.02490 44.28531 8806 ft 299 kts 272°
2026-04-10 14:09 56.02579 44.24835 8494 ft 299 kts 271°
2026-04-10 14:09 56.02638 44.21178 7947 ft 288 kts 273°
2026-04-10 14:09 56.02715 44.17569 7296 ft 286 kts 272°
2026-04-10 14:09 56.02807 44.14059 6927 ft 281 kts 274°
2026-04-10 14:10 56.02879 44.10627 6537 ft 271 kts 272°
2026-04-10 14:10 56.02966 44.07300 6194 ft 264 kts 271°
2026-04-10 14:10 56.03036 44.04069 5846 ft 255 kts 271°
2026-04-10 14:10 56.03085 44.00960 5526 ft 247 kts 271°
2026-04-10 14:11 56.03133 43.97939 5104 ft 244 kts 271°
2026-04-10 14:11 56.03185 43.94925 4757 ft 241 kts 271°
2026-04-10 14:11 56.03231 43.91987 4439 ft 233 kts 272°
2026-04-10 14:11 56.03301 43.89149 4129 ft 224 kts 278°
2026-04-10 14:12 56.03584 43.86466 3830 ft 217 kts 283°
2026-04-10 14:12 56.03883 43.83821 3555 ft 214 kts 282°
2026-04-10 14:12 56.04162 43.81270 3241 ft 205 kts 283°
2026-04-10 14:12 56.04428 43.78827 2940 ft 196 kts 284°
2026-04-10 14:13 56.04917 43.76651 2692 ft 186 kts 307°
2026-04-10 14:13 56.05737 43.74960 2475 ft 173 kts 326°
2026-04-10 14:13 56.06705 43.73900 2407 ft 156 kts 343°
2026-04-10 14:13 56.07712 43.73397 2403 ft 147 kts 359°
2026-04-10 14:14 56.08718 43.73389 2401 ft 143 kts 13°
2026-04-10 14:14 56.09690 43.73738 2397 ft 144 kts 15°
2026-04-10 14:14 56.10667 43.74086 2342 ft 143 kts 16°
2026-04-10 14:14 56.11608 43.74432 2213 ft 136 kts 15°
2026-04-10 14:15 56.12514 43.74767 2064 ft 134 kts 14°
2026-04-10 14:15 56.13424 43.75101 1894 ft 133 kts 16°
2026-04-10 14:15 56.14349 43.75440 1729 ft 138 kts 15°
2026-04-10 14:15 56.15286 43.75778 1537 ft 135 kts 15°
2026-04-10 14:16 56.16212 43.76110 1351 ft 138 kts 16°
2026-04-10 14:16 56.17153 43.76462 1157 ft 139 kts 20°
2026-04-10 14:16 56.18074 43.76822 1022 ft 137 kts 14°
2026-04-10 14:16 56.18993 43.77133 834 ft 136 kts 14°
2026-04-10 14:17 56.19919 43.77448 648 ft 135 kts 13°
2026-04-10 14:17 56.20838 43.77783 429 ft 135 kts 14°
2026-04-10 14:17 56.21752 43.78120 292 ft 133 kts 14°
2026-04-10 14:17 56.22554 43.78425 265 ft 96 kts 11°
2026-04-10 14:18 56.23043 43.78601 269 ft 47 kts 11°
2026-04-10 14:18 56.23314 43.78700 266 ft 38 kts 11°
2026-04-10 14:18 56.23571 43.78794 263 ft 37 kts 11°
2026-04-10 14:18 56.23816 43.78884 266 ft 35 kts 11°
2026-04-10 14:19 56.23985 43.78943 267 ft 18 kts 11°
2026-04-10 14:19 56.24099 43.79006 268 ft 11 kts 40°
2026-04-10 14:19 56.24094 43.79145 266 ft 14 kts 118°
2026-04-10 14:19 56.24020 43.79265 266 ft 16 kts 167°
2026-04-10 14:20 56.23908 43.79263 266 ft 16 kts 183°
2026-04-10 14:20 56.23794 43.79254 266 ft 16 kts 182°
2026-04-10 14:20 56.23679 43.79246 266 ft 17 kts 182°
2026-04-10 14:20 56.23561 43.79237 266 ft 17 kts 182°
2026-04-10 14:21 56.23441 43.79208 266 ft 18 kts 192°
2026-04-10 14:21 56.23315 43.79163 266 ft 19 kts 191°
2026-04-10 14:21 56.23179 43.79112 266 ft 21 kts 192°
2026-04-10 14:21 56.23031 43.79059 266 ft 23 kts 191°
2026-04-10 14:22 56.22871 43.79001 266 ft 24 kts 191°
2026-04-10 14:22 56.22699 43.78938 266 ft 26 kts 192°
2026-04-10 14:22 56.22515 43.78871 266 ft 28 kts 191°
2026-04-10 14:22 56.22380 43.78797 266 ft 16 kts 192°
2026-04-10 14:23 56.22279 43.78758 266 ft 14 kts 192°
2026-04-10 14:23 56.22187 43.78724 266 ft 13 kts 192°
2026-04-10 14:23 56.22106 43.78695 266 ft 11 kts 192°
2026-04-10 14:23 56.22041 43.78716 266 ft 9 kts 129°
2026-04-10 14:24 56.22026 43.78824 266 ft 9 kts 101°
2026-04-10 14:24 56.22022 43.78860 266 ft 1 kts 101°
2026-04-10 14:24 56.22022 43.78861 266 ft 0 kts 101°